GALAXY 30 (G-30)

Last updated on Sun Nov 16 2025 00:03:44 GMT+0000 (Coordinated Universal Time)

1 46114U 20056C 25319.49267382 .00000044 00000+0 00000+0 0 9996 2 46114 0.0204 291.3917 0002160 302.0526 233.7672 1.00272335 19152
UTC large
Height (km)
Speed (km/s)
/
Latitude / Longitude
Inclination (degrees)
Orbital Period (minutes)
Azimuth
Elevation
Range (km)
Doppler Factor

Next 0 passes for location: London (51.5072 / 0.1276)

Sorry there are no passes over London.